This is the latest recevied weather packets stored in our database for station/object KB3VSP. If no packets are shown the sender has not sent any weather packets the latest 1 day(s).
| Time | Temp. | Humidity | Pressure | Rain* | Wind** | Luminosity | Snow |
|---|---|---|---|---|---|---|---|
| 1778025569 | 20.56° C | 58% | 1008.2 hPa | 0 mm | 0.89 m/s, 217° | 3 W/m² | - |
| 1778025268 | 20.56° C | 60% | 1008 hPa | 0 mm | 0.89 m/s, 69° | 1 W/m² | - |
| 1778024964 | 20.56° C | 61% | 1007.8 hPa | 0 mm | 0.89 m/s, 170° | 3 W/m² | - |
| 1778024662 | 20.56° C | 60% | 1007.9 hPa | 0 mm | 0.45 m/s, 76° | 6 W/m² | - |
| 1778024358 | 20.56° C | 59% | 1008 hPa | 0 mm | 0 m/s | 9 W/m² | - |
| 1778024056 | 20.56° C | 59% | 1008 hPa | 0 mm | 0.45 m/s, 57° | 9 W/m² | - |
| 1778023753 | 20.56° C | 60% | 1007.7 hPa | 0 mm | 0 m/s | 11 W/m² | - |
| 1778023451 | 20.56° C | 59% | 1007.7 hPa | 0 mm | 0.45 m/s, 96° | 19 W/m² | - |
| 1778023147 | 20.56° C | 59% | 1007.8 hPa | 0 mm | 0.45 m/s, 80° | 18 W/m² | - |
| 1778022845 | 20.56° C | 59% | 1007.8 hPa | 0 mm | 0.45 m/s, 62° | 13 W/m² | - |
| 1778022543 | 21.11° C | 59% | 1007.9 hPa | 0 mm | 0.45 m/s, 73° | 10 W/m² | - |
| 1778022240 | 21.11° C | 59% | 1007.8 hPa | 0 mm | 0.89 m/s, 80° | 15 W/m² | - |
| 1778021937 | 21.11° C | 59% | 1007.9 hPa | 0 mm | 0 m/s | 35 W/m² | - |
| 1778021634 | 21.11° C | 59% | 1008 hPa | 0 mm | 0.89 m/s, 14° | 46 W/m² | - |
| 1778021329 | 21.11° C | 58% | 1008 hPa | 0 mm | 0.45 m/s, 329° | 43 W/m² | - |
| 1778021027 | 21.11° C | 58% | 1008.1 hPa | 0 mm | 0.89 m/s, 111° | 33 W/m² | - |
| 1778020724 | 21.11° C | 58% | 1008.2 hPa | 0 mm | 1.34 m/s, 82° | 58 W/m² | - |
| 1778020421 | 21.11° C | 59% | 1008.2 hPa | 0 mm | 1.34 m/s, 210° | 51 W/m² | - |
| 1778020116 | 21.11° C | 59% | 1008.1 hPa | 0 mm | 0.45 m/s, 349° | 51 W/m² | - |
| 1778019813 | 21.11° C | 59% | 1007.9 hPa | 0 mm | 1.34 m/s, 276° | 47 W/m² | - |
| 1778019510 | 21.11° C | 59% | 1008 hPa | 0 mm | 0.45 m/s, 29° | 48 W/m² | - |
| 1778019207 | 21.11° C | 58% | 1008.1 hPa | 0 mm | 0.89 m/s, 167° | 49 W/m² | - |
| 1778018904 | 21.11° C | 58% | 1008.2 hPa | 0 mm | 0.45 m/s, 71° | 65 W/m² | - |
| 1778018601 | 21.11° C | 58% | 1008.2 hPa | 0 mm | 1.34 m/s, 298° | 54 W/m² | - |
| 1778018299 | 21.67° C | 58% | 1008.4 hPa | 0 mm | 0.89 m/s, 76° | 45 W/m² | - |
* Rain latest hour (hover to see other rain measurements)
** Current wind speed in m/s (hover to see current wind gust speed)